Hlavní strana
METAR-TAF:

METAR-TAF

Letiště :

Farmville Regional Airport

Farmville, Virginie, Spojené státy americké

zeměpisná šířka: 37-21N, zeměpisná délka: 078-26W, výška: 125 m

Aktuální stav počasí

Zpráva byla vytvořena před 27 minutami, v 00:55 UTC
Jihojihozápadní vítr 6 kt
Teplota 23°C
Vlhkost vzduchu 89%
Tlak 1015 hPa
Viditelnost: 16.1 km
Jasno

METAR: KFVX 300055Z AUTO 21006KT 10SM CLR 23/21 A2997 RMK AO2 T02310213

Čas: 21:22 (01:22 UTC)


TAF: chybějící

Stav a předpovědi počasí z více než 4 000 letišť (zprávy METAR a TAF).

Červené a žluté tečky na mapě představují dostupné meteorologické stanice.

Když kurzor umístíte na tečku, zobrazí se název stanice.

Pak kliknutím zobrazíte stav a předpověď počasí.

Chcete-li změnit mapu, kliknutím na zelené tlačítko se znaménkem +mapu přiblížíte, kliknutím na zelené tlačítko se znaménkem – mapu oddálíte a kliknutím na zelené šipky přejdete na sousední mapy.


METAR-TAF: